Time,TemperatureF,DewpointF,PressureIn,WindDirection,WindDirectionDegrees,WindSpeedMPH,WindSpeedGustMPH,Humidity,HourlyPrecipIn,Conditions,Clouds,dailyrainin,SolarRadiationWatts/m^2,SoftwareType,DateUTC
2013-04-10 00:02:00,30.0,23.0,-100.00,SE,145,2.0,6.0,74,0.00,,,0.00,0.000000,,2013-04-10 06:02:00,
2013-04-10 00:12:00,30.0,23.0,-100.00,SE,145,2.0,6.0,74,0.00,,,0.00,0.000000,,2013-04-10 06:12:00,
2013-04-10 00:42:00,28.0,22.0,-100.00,SW,217,3.0,7.0,77,0.00,,,0.00,0.000000,,2013-04-10 06:42:00,
2013-04-10 00:52:00,28.0,22.0,-100.00,SW,217,3.0,7.0,77,0.00,,,0.00,0.000000,,2013-04-10 06:52:00,
2013-04-10 01:02:00,28.0,22.0,-100.00,SW,217,3.0,7.0,77,0.00,,,0.00,0.000000,,2013-04-10 07:02:00,
2013-04-10 01:12:00,28.0,22.0,-100.00,SW,217,3.0,7.0,77,0.00,,,0.00,0.000000,,2013-04-10 07:12:00,
2013-04-10 01:43:00,30.0,23.0,-100.00,SE,140,2.0,6.0,75,0.00,,,0.00,0.000000,,2013-04-10 07:43:00,
2013-04-10 01:52:00,30.0,23.0,-100.00,SE,140,2.0,6.0,75,0.00,,,0.00,0.000000,,2013-04-10 07:52:00,
2013-04-10 02:02:00,30.0,23.0,-100.00,SE,140,2.0,6.0,75,0.00,,,0.00,0.000000,,2013-04-10 08:02:00,
2013-04-10 02:11:00,30.0,23.0,-100.00,SE,140,2.0,6.0,75,0.00,,,0.00,0.000000,,2013-04-10 08:11:00,
2013-04-10 02:42:00,30.0,25.0,-100.00,NNE,26,2.0,4.0,81,0.00,,,0.00,0.000000,,2013-04-10 08:42:00,
2013-04-10 02:52:00,30.0,25.0,-100.00,NNE,26,2.0,4.0,81,0.00,,,0.00,0.000000,,2013-04-10 08:52:00,
2013-04-10 03:02:00,30.0,25.0,-100.00,NNE,26,2.0,4.0,81,0.00,,,0.00,0.000000,,2013-04-10 09:02:00,
2013-04-10 03:12:00,30.0,25.0,-100.00,NNE,26,2.0,4.0,81,0.00,,,0.00,0.000000,,2013-04-10 09:12:00,
2013-04-10 03:43:00,31.0,26.0,-100.00,SSE,165,2.0,5.0,80,0.00,,,0.00,0.000000,,2013-04-10 09:43:00,
2013-04-10 03:53:00,31.0,26.0,-100.00,SSE,165,2.0,5.0,80,0.00,,,0.00,0.000000,,2013-04-10 09:53:00,
2013-04-10 04:02:00,31.0,26.0,-100.00,SSE,165,2.0,5.0,80,0.00,,,0.00,0.000000,,2013-04-10 10:02:00,
2013-04-10 04:12:00,31.0,26.0,-100.00,SSE,165,2.0,5.0,80,0.00,,,0.00,0.000000,,2013-04-10 10:12:00,
2013-04-10 04:33:00,32.0,26.0,-100.00,NW,305,2.0,5.0,79,0.00,,,0.00,0.000000,,2013-04-10 10:33:00,
2013-04-10 04:43:00,32.0,26.0,-100.00,NW,305,2.0,5.0,79,0.00,,,0.00,0.000000,,2013-04-10 10:43:00,
2013-04-10 04:52:00,32.0,26.0,-100.00,NW,305,2.0,5.0,79,0.00,,,0.00,0.000000,,2013-04-10 10:52:00,
2013-04-10 05:02:00,32.0,26.0,-100.00,NW,305,2.0,5.0,79,0.00,,,0.00,0.000000,,2013-04-10 11:02:00,
2013-04-10 05:12:00,32.0,26.0,-100.00,NW,305,2.0,5.0,79,0.00,,,0.00,0.000000,,2013-04-10 11:12:00,
2013-04-10 07:32:00,33.0,27.0,-100.00,SSE,165,2.0,5.0,77,-99.99,,,0.00,3.000000,,2013-04-10 13:32:00,
2013-04-10 07:43:00,33.0,27.0,-100.00,SSE,165,2.0,5.0,77,-99.99,,,0.00,3.000000,,2013-04-10 13:43:00,
2013-04-10 07:53:00,33.0,27.0,-100.00,SSE,165,2.0,5.0,77,-99.99,,,0.00,3.000000,,2013-04-10 13:53:00,
2013-04-10 08:02:00,33.0,27.0,-100.00,SSE,165,2.0,5.0,77,-99.99,,,0.00,3.000000,,2013-04-10 14:02:00,
2013-04-10 08:12:00,33.0,27.0,-100.00,SSE,165,2.0,5.0,77,-99.99,,,0.00,3.000000,,2013-04-10 14:12:00,
2013-04-10 08:33:00,35.0,29.0,-100.00,East,90,4.0,7.0,78,0.00,,,0.00,25.000000,,2013-04-10 14:33:00,
2013-04-10 08:42:00,35.0,29.0,-100.00,East,90,4.0,7.0,78,0.00,,,0.00,25.000000,,2013-04-10 14:42:00,
2013-04-10 08:52:00,35.0,29.0,-100.00,East,90,4.0,7.0,78,0.00,,,0.00,25.000000,,2013-04-10 14:52:00,
2013-04-10 09:02:00,35.0,29.0,-100.00,East,90,4.0,7.0,78,0.00,,,0.00,25.000000,,2013-04-10 15:02:00,
2013-04-10 09:12:00,35.0,29.0,-100.00,East,90,4.0,7.0,78,0.00,,,0.00,25.000000,,2013-04-10 15:12:00,
2013-04-10 10:33:00,43.0,26.0,-100.00,SSE,163,3.0,5.0,50,-99.99,,,0.00,246.000000,,2013-04-10 16:33:00,
2013-04-10 10:43:00,43.0,26.0,-100.00,SSE,163,3.0,5.0,50,-99.99,,,0.00,246.000000,,2013-04-10 16:43:00,
2013-04-10 10:53:00,43.0,26.0,-100.00,SSE,163,3.0,5.0,50,-99.99,,,0.00,246.000000,,2013-04-10 16:53:00,
2013-04-10 11:02:00,43.0,26.0,-100.00,SSE,163,3.0,5.0,50,-99.99,,,0.00,246.000000,,2013-04-10 17:02:00,
2013-04-10 11:12:00,43.0,26.0,-100.00,SSE,163,3.0,5.0,50,-99.99,,,0.00,246.000000,,2013-04-10 17:12:00,
2013-04-10 11:34:00,49.0,31.0,-100.00,South,171,4.0,6.0,49,0.00,,,0.00,314.000000,,2013-04-10 17:34:00,
2013-04-10 12:02:00,49.0,31.0,-100.00,South,171,4.0,6.0,49,0.00,,,0.00,314.000000,,2013-04-10 18:02:00,
2013-04-10 12:12:00,49.0,31.0,-100.00,South,171,4.0,6.0,49,0.00,,,0.00,314.000000,,2013-04-10 18:12:00,
2013-04-10 12:43:00,51.0,30.0,-100.00,SSW,196,5.0,14.0,44,0.00,,,0.00,461.000000,,2013-04-10 18:43:00,
2013-04-10 12:52:00,51.0,30.0,-100.00,SSW,196,5.0,14.0,44,0.00,,,0.00,461.000000,,2013-04-10 18:52:00,
2013-04-10 13:02:00,51.0,30.0,-100.00,SSW,196,5.0,14.0,44,0.00,,,0.00,461.000000,,2013-04-10 19:02:00,
2013-04-10 13:12:00,51.0,30.0,-100.00,SSW,196,5.0,14.0,44,0.00,,,0.00,461.000000,,2013-04-10 19:12:00,
2013-04-10 13:42:00,55.0,31.0,-100.00,SSW,211,7.0,15.0,39,0.00,,,0.00,529.000000,,2013-04-10 19:42:00,
2013-04-10 13:53:00,55.0,31.0,-100.00,SSW,211,7.0,15.0,39,0.00,,,0.00,529.000000,,2013-04-10 19:53:00,
2013-04-10 14:02:00,55.0,31.0,-100.00,SSW,211,7.0,15.0,39,0.00,,,0.00,529.000000,,2013-04-10 20:02:00,
2013-04-10 14:12:00,55.0,31.0,-100.00,SSW,211,7.0,15.0,39,0.00,,,0.00,529.000000,,2013-04-10 20:12:00,
2013-04-10 14:33:00,56.0,31.0,-100.00,South,178,8.0,16.0,39,0.00,,,0.00,619.000000,,2013-04-10 20:33:00,
2013-04-10 14:42:00,56.0,31.0,-100.00,South,178,8.0,16.0,39,0.00,,,0.00,619.000000,,2013-04-10 20:42:00,
2013-04-10 14:52:00,56.0,31.0,-100.00,South,178,8.0,16.0,39,0.00,,,0.00,619.000000,,2013-04-10 20:52:00,
2013-04-10 15:02:00,56.0,31.0,-100.00,South,178,8.0,16.0,39,0.00,,,0.00,619.000000,,2013-04-10 21:02:00,
2013-04-10 15:12:00,56.0,31.0,-100.00,South,178,8.0,16.0,39,0.00,,,0.00,619.000000,,2013-04-10 21:12:00,
2013-04-10 15:43:00,56.0,32.0,-100.00,SW,230,8.0,16.0,40,0.00,,,0.00,485.000000,,2013-04-10 21:43:00,
2013-04-10 15:53:00,56.0,32.0,-100.00,SW,230,8.0,16.0,40,0.00,,,0.00,485.000000,,2013-04-10 21:53:00,
2013-04-10 16:03:00,56.0,32.0,-100.00,SW,230,8.0,16.0,40,0.00,,,0.00,485.000000,,2013-04-10 22:03:00,
2013-04-10 16:12:00,56.0,32.0,-100.00,SW,230,8.0,16.0,40,0.00,,,0.00,485.000000,,2013-04-10 22:12:00,
2013-04-10 16:34:00,54.0,36.0,-100.00,SW,231,5.0,12.0,51,0.00,,,0.00,309.000000,,2013-04-10 22:34:00,
2013-04-10 16:43:00,54.0,36.0,-100.00,SW,231,5.0,12.0,51,0.00,,,0.00,309.000000,,2013-04-10 22:43:00,
2013-04-10 16:53:00,54.0,36.0,-100.00,SW,231,5.0,12.0,51,0.00,,,0.00,309.000000,,2013-04-10 22:53:00,
2013-04-10 17:02:00,54.0,36.0,-100.00,SW,231,5.0,12.0,51,0.00,,,0.00,309.000000,,2013-04-10 23:02:00,
2013-04-10 17:12:00,54.0,36.0,-100.00,SW,231,5.0,12.0,51,0.00,,,0.00,309.000000,,2013-04-10 23:12:00,
2013-04-10 17:33:00,54.0,42.0,-100.00,SSE,164,7.0,12.0,63,0.00,,,0.00,265.000000,,2013-04-10 23:33:00,
2013-04-10 17:43:00,54.0,42.0,-100.00,SSE,164,7.0,12.0,63,0.00,,,0.00,265.000000,,2013-04-10 23:43:00,
2013-04-10 17:52:00,54.0,42.0,-100.00,SSE,164,7.0,12.0,63,0.00,,,0.00,265.000000,,2013-04-10 23:52:00,
2013-04-10 18:02:00,54.0,42.0,-100.00,SSE,164,7.0,12.0,63,0.00,,,0.00,265.000000,,2013-04-11 00:02:00,
2013-04-10 18:11:00,54.0,42.0,-100.00,SSE,164,7.0,12.0,63,0.00,,,0.00,265.000000,,2013-04-11 00:11:00,
2013-04-10 18:42:00,53.0,39.0,-100.00,WNW,290,5.0,13.0,60,0.00,,,0.00,141.000000,,2013-04-11 00:42:00,
2013-04-10 18:53:00,53.0,39.0,-100.00,WNW,290,5.0,13.0,60,0.00,,,0.00,141.000000,,2013-04-11 00:53:00,
2013-04-10 19:02:00,53.0,39.0,-100.00,WNW,290,5.0,13.0,60,0.00,,,0.00,141.000000,,2013-04-11 01:02:00,
2013-04-10 19:12:00,53.0,39.0,-100.00,WNW,290,5.0,13.0,60,0.00,,,0.00,141.000000,,2013-04-11 01:12:00,
2013-04-10 19:42:00,50.0,44.0,-100.00,North,358,3.0,7.0,80,0.02,,,0.02,63.000000,,2013-04-11 01:42:00,
2013-04-10 19:52:00,50.0,44.0,-100.00,North,358,3.0,7.0,80,0.02,,,0.02,63.000000,,2013-04-11 01:52:00,
2013-04-10 20:02:00,50.0,44.0,-100.00,North,358,3.0,7.0,80,0.02,,,0.02,63.000000,,2013-04-11 02:02:00,
2013-04-10 20:12:00,50.0,44.0,-100.00,North,358,3.0,7.0,80,0.02,,,0.02,63.000000,,2013-04-11 02:12:00,
2013-04-10 20:52:00,47.0,41.0,-100.00,West,276,2.0,7.0,81,0.01,,,0.03,15.000000,,2013-04-11 02:52:00,
2013-04-10 21:02:00,47.0,41.0,-100.00,West,276,2.0,7.0,81,0.01,,,0.03,15.000000,,2013-04-11 03:02:00,
2013-04-10 21:12:00,47.0,41.0,-100.00,West,276,2.0,7.0,81,0.01,,,0.03,15.000000,,2013-04-11 03:12:00,
2013-04-10 21:43:00,44.0,40.0,-100.00,NE,37,2.0,6.0,87,0.04,,,0.07,0.000000,,2013-04-11 03:43:00,
2013-04-10 21:53:00,44.0,40.0,-100.00,NE,37,2.0,6.0,87,0.04,,,0.07,0.000000,,2013-04-11 03:53:00,
2013-04-10 22:03:00,44.0,40.0,-100.00,NE,37,2.0,6.0,87,0.04,,,0.07,0.000000,,2013-04-11 04:03:00,
2013-04-10 22:12:00,44.0,40.0,-100.00,NE,37,2.0,6.0,87,0.04,,,0.07,0.000000,,2013-04-11 04:12:00,
2013-04-10 22:43:00,43.0,41.0,-100.00,North,358,2.0,7.0,94,0.00,,,0.07,0.000000,,2013-04-11 04:43:00,
2013-04-10 22:53:00,43.0,41.0,-100.00,North,358,2.0,7.0,94,0.00,,,0.07,0.000000,,2013-04-11 04:53:00,
2013-04-10 23:02:00,43.0,41.0,-100.00,North,358,2.0,7.0,94,0.00,,,0.07,0.000000,,2013-04-11 05:02:00,
2013-04-10 23:12:00,43.0,41.0,-100.00,North,358,2.0,7.0,94,0.00,,,0.07,0.000000,,2013-04-11 05:12:00,
2013-04-10 23:42:00,42.0,39.0,-100.00,East,93,3.0,10.0,89,0.08,,,0.15,0.000000,,2013-04-11 05:42:00,
2013-04-10 23:52:00,42.0,39.0,-100.00,East,93,3.0,10.0,89,0.08,,,0.15,0.000000,,2013-04-11 05:52:00,